Вернуться в каталог

STARLINK-34221

АктивенСвязьVLEO
NORAD 64453·PAYLOAD·🇺🇸 United States

Запущен Jun 18, 2025 с Cape Canaveral Space Force Station

Loading…

Ближайшие Пролёты (ближайшие 24 часа)

TLE

СвежийSource: CelesTrak SupGP

Эпоха: Sep 14, 2026, 14:56 UTC

1 64453C 25130R   26257.62270833  .00013307  00000+0  39321-3 0  2577
2 64453  53.1580 286.8840 0001118  70.9053  54.3391 15.34379178    11

Отслеживайте STARLINK-34221 в реальном времени с AllMySat

Download on the App Store